Preview of NWS' New Version of Forecast
This preview is not operational and should not be used for support decisions.
Latest weather observations around

Whitefield - Mount Washington Regional Airport (KHIE)

Using International System of Units (Switch to English Units)
Date/ Time (EDT) Wind (kph) Vis. (km) Weather Sky Cond. Temp (°C) Rel. Humidity Wind Chill (°C) Heat Index (°C) Pressure Precip. (cm)
Air Dwpt 6 hour Altimeter (hPa) Sea level (hPa) 1 hr 3 hr 6 hr
Max Min
Jun 18 17:52 5 16.09 Clear CLR 23 11     48%   22 1012.9 1012.8      
Jun 18 16:52 5 16.09 Partly Cloudy SCT075 23 11     48%   22 1013.2 1013.1      
Jun 18 15:52 9 16.09 Mostly Cloudy FEW055 BKN085 22 11     49%   22 1013.9 1013.7      
Jun 18 14:52 Calm 16.09 Mostly Cloudy BKN055 BKN075 22 10     47%   21 1014.2 1014.1      
Jun 17 11:52 WNW 15 16.09 Partly Cloudy SCT046 20 8     47%     1015.2 1015.4      
Jun 17 10:52 WNW 15 16.09 Partly Cloudy SCT039 19 10     55%     1015.6 1015.5      
Jun 17 09:52 8 16.09 Mostly Cloudy SCT029 BKN039 18 10     60%     1015.9 1015.9      
Jun 17 08:52 Calm 16.09 Clear CLR 16 11     72%     1015.6 1015.5      
Jun 17 07:52 Calm 16.09 Clear CLR 12 10     86%     1015.2 1015.2      
Jun 17 06:52 Calm 16.09 Mostly Clear FEW002 8 7     96%     1014.9 1014.9      
Jun 17 06:41 Calm 4.83 Fog/Mist FEW002 8 7     96%     1014.6        
Jun 17 06:38 Calm 2.01 Fog/Mist SCT002 7 7     100%     1014.6        
Jun 17 06:30 Calm 1.21 Fog/Mist VV002 7 7     97%     1014.6        
Jun 17 06:27 Calm 2.41 Fog/Mist SCT001 7 6     96%     1014.6        
Jun 17 06:25 Calm 6.44 Fog/Mist SCT001 7 6     96%     1014.6        
Jun 17 06:10 Calm 4.83 Fog/Mist BKN001 6 6     97%     1014.6        
Jun 17 06:06 Calm 2.01 Fog/Mist OVC001 6 6     97%     1014.2        
Jun 17 05:52 Calm 0.4 Fog VV001 6 5     93%     1014.6 1014.7      
Jun 17 05:14 Calm 1.21 Fog/Mist OVC001 6 5     93%     1013.9        
Jun 17 05:11 Calm 2.01 Fog/Mist OVC001 6 5     93%     1013.9        
Jun 17 04:52 Calm 1.21 Fog/Mist BKN001 6 5     96%     1013.6 1013.9      
Jun 17 04:50 Calm 1.61 Fog/Mist BKN001 6 5     93%     1013.6        
Jun 17 04:48 Calm 3.22 Fog/Mist BKN001 6 5     93%     1013.6        
Jun 17 04:17 Calm 11.27 Mostly Clear FEW002 6 5     93%     1013.9        
Jun 17 03:52 Calm 16.09 Clear CLR 7 6     93%     1013.2 1013.5      
Jun 17 02:52 Calm 9.66 Fog/Mist CLR 8 6     89%     1012.5 1012.6      
Jun 17 01:52 Calm 16.09 Clear   9 8     93%     1012.2 1012.2      
Jun 17 00:52 Calm 16.09 Clear CLR 11 9     89%     1011.9 1011.9      
Jun 16 23:52 Calm 16.09 Clear CLR 12 11     90%     1011.9 1011.9      
Jun 16 22:52 Calm 16.09 Clear CLR 14 12     89%     1011.5 1011.4      
Jun 16 21:52 Calm 16.09 Clear CLR 15 13     90%     1011.2 1011      
Jun 16 20:52 Calm 16.09 Partly Cloudy FEW038 SCT050 17 14     86%     1010.8 1010.8      
Jun 16 19:52 Calm 16.09 Partly Cloudy FEW029 SCT048 19 14     75%     1010.8 1010.6      
Jun 16 18:52 Calm 16.09 Mostly Cloudy BKN065 19 14     73%     1010.5 1010.4      
Jun 16 17:52 SSW 5 16.09 Cloudy BKN050 OVC065 19 14     73%     1010.2 1010.1      
Jun 16 16:52 8 16.09 Cloudy OVC060 19 14     75%     1010.2 1010.2      
Jun 16 15:52 WSW 13 16.09 Cloudy OVC060 20 14     68%     1010.5 1010.2      
Jun 16 14:52 WSW 11 16.09 Cloudy BKN043 OVC060 20 14     68%     1010.5 1010.3      
Jun 16 13:52 SSW 5 16.09 Cloudy OVC060 20 14     68%     1010.5 1010.2      
Jun 16 13:26 8 16.09 Cloudy SCT028 OVC060 21 14     68%     1010.5        
Jun 16 13:10 SSW 8 16.09 Cloudy BKN028 BKN035 OVC060 20 14     68%     1010.5        
Jun 16 12:52 SW 9 16.09 Cloudy BKN031 OVC039 21 14     65%     1010.8 1010.5      
Jun 16 11:52 SW 8 16.09 Partly Cloudy SCT032 21 13     61%     1010.8 1010.6      
Jun 16 10:52 WNW 11 16.09 Partly Cloudy FEW026 SCT048 SCT055 21 13     61%     1010.8 1010.6      
Jun 16 10:30 WNW 9 16.09 Mostly Cloudy SCT026 BKN032 21 14     63%     1010.8        
Jun 16 09:52 WNW 5 16.09 Cloudy BKN025 BKN030 OVC038 19 13     70%     1011.2 1011      
Jun 16 08:52 Calm 16.09 Cloudy BKN016 BKN026 OVC050 18 13     75%     1011.9 1011.5      
Jun 16 08:42 NW 5 16.09 Cloudy BKN014 BKN018 OVC039 18 14     78%     1011.9        
Jun 16 07:52 SSW 8 16.09 Cloudy SCT013 BKN020 OVC026 17 14     84%     1011.5 1011.2     0
Jun 16 07:23 Calm 16.09 Cloudy FEW011 BKN018 OVC035 17 14     84%     1011.2        
Jun 16 06:52 Calm 16.09 Cloudy FEW010 SCT020 OVC037 16 14     87%     1011.2 1011      
Jun 16 05:52 Calm 16.09 Cloudy OVC045 15 13     90%     1011.2 1010.8      
Jun 16 04:52 Calm 16.09 Cloudy OVC048 16 13     86%     1010.8 1010.4   0  
Jun 16 03:52 SW 5 16.09 Cloudy OVC047 16 13     86%     1010.5 1010.2      
Jun 16 02:52 WSW 5 16.09 Cloudy FEW029 BKN047 OVC055 16 13     83%     1010.5 1010.4 0    
Jun 16 01:52 WSW 5 16.09 Light Rain FEW028 BKN037 OVC055 16 13     81%     1010.5 1010.4 0   0
Jun 16 00:52 SW 8 16.09 Cloudy BKN039 OVC048 16 13     81%     1010.5 1010.3 0    
Jun 15 23:52 WSW 15 16.09 Light Rain OVC043 18 11     65%     1010.2 1010.1 0    
Jun 15 22:52 WSW 9 16.09 Cloudy OVC046 20 9     49%     1009.8 1009.6   0  
Jun 15 21:52 8 16.09 Cloudy OVC055 20 9     49%     1009.8 1009.7      
Jun 15 20:52 SW 5 16.09 Cloudy OVC065 19 9     52%     1010.2 1010.1 0    
Jun 15 19:52 11 16.09 Cloudy OVC070 21 8     42%     1010.5 1010.3      
Jun 15 18:52 SW 17 16.09 Cloudy OVC075 22 6     35%   21 1010.2 1010.1      
Jun 15 17:52 SW 21 16.09 Cloudy OVC095 23 5     31%   22 1010.2 1010.1      
May 15 12:30 NE 8 4.83 Light Rain and Fog/Mist FEW008 BKN015 OVC055 16 15     93%     1008.1   0    
May 15 04:52 Calm 16.09 Clear CLR 7 5     89%     1009.2 1009      
May 14 18:52 WSW 11 16.09 Clear CLR 24 6     31%   23 1009.5 1009.5      
May 14 05:52 Calm 16.09 Clear CLR 1 -1     92%     1014.9 1015.4      
May 12 08:52 5 16.09 Clear   8 -2     48% 8   1022.7 1023.5      
May 12 04:52 Calm 16.09 Clear CLR -2 -4     88%     1022 1022.9      
May 12 01:52 Calm 16.09 Clear CLR -2 -4     85%     1022 1022.8      
Notice The following observation data may not be complete
Jun 12 04:52 Calm 12.87 Clear CLR   13      %     1014.9 1014.6      
Jun 11 14:52 WSW 22 16.09 Clear CLR 31 14     37%   30 1011.2 1010.8      
Jun 11 13:52   16.09 Clear CLR 29 15     43%   29 1011.2 1010.9      
Jun 11 02:52 Calm 16.09 Partly Cloudy SCT100 12 10     89%     1013.6 1013.6      
Notice The following observation data may not be complete
Jun 10 03:16   12.87 Clear CLR          %         0    
Jun 09 07:52 SSE 8 16.09 Cloudy OVC070 12 10     86%     1005.4 1005.2      
Jun 08 22:52 Calm 16.09 Clear CLR 14 11     81%     1010.8 1010.4      
Jun 08 10:52 NNW 5 16.09 Clear CLR 24 10     41%   23 1016.6 1016.3      
Jun 08 03:52 Calm 16.09 Clear CLR 6 4     89%     1016.9 1017      
Jun 08 02:52 Calm 16.09 Clear CLR 6 4     89%     1016.9 1016.9      
Jun 07 20:52 Calm 16.09 Clear CLR 14 11     78%     1015.2 1015.5      
Jun 07 12:52 NW 11 16.09 Clear CLR 22 9     45%   21 1014.6 1014.7      
Jun 07 09:52 Calm 16.09 Partly Cloudy SCT009 14 10     77%     1016.6 1016.9      
Jun 06 12:52 E 13 16.09 Light Rain OVC075 10 6     74% 8   1012.2 1012.6 0    
Jun 05 20:52 Calm 16.09 Cloudy BKN040 BKN055 OVC070 13 8     72%     1012.2 1012.2